Вернуться в каталог

BUFENG YI HAO A XING

АктивенНаукаVLEO
NORAD 44312·PAYLOAD·🇨🇳 China
Это название спутника еще не подтверждено официальными источниками.

Запущен Jun 5, 2019 с Yellow Sea Launch Area

Loading…

Ближайшие Пролёты (ближайшие 24 часа)

TLE

СвежийSource: Space-Track

Эпоха: Sep 14, 2026, 23:30 UTC

1 44312U 19032C   26257.97918432  .00012847  00000-0  38699-3 0  9994
2 44312  44.9735 222.0846 0005864 113.8643 246.2857 15.34370124401628

Отслеживайте BUFENG YI HAO A XING в реальном времени с AllMySat

Download on the App Store